Regional Weather Roundup
Issued by NWS

Home | Current Version | Previous Version | Text Only | Print | Product List | Glossary On
Versions: 1 2 3 4 5 6 7 8 9 10 11 12 13 14 15 16 17 18 19 20 21 22 23 24 25 26 27 28 29 30 31 32 33 34 35 36 37 38 39 40 41 42 43 44 45 46 47 48 49 50
000
ASUS43 KMPX 242310
RWRMN
WEATHER ROUNDUP FOR MINNESOTA
NATIONAL WEATHER SERVICE TWIN CITIES/CHANHASSEN MN
600 PM CDT WED AUG 24 2016


NOTE: "FAIR" INDICATES FEW OR NO CLOUDS BELOW 12,000 FEET WITH NO
SIGNIFICANT WEATHER AND/OR OBSTRUCTIONS TO VISIBILITY. N/A MEANS
CURRENT SKY AND/OR WEATHER CONDITIONS ARE NOT AVAILABLE.

MNZ060>063-068>070-250000-
   Twin Cities Metro

CITY           SKY/WX    TMP DP  RH WIND       PRES   REMARKS
TWIN CITIES    CLOUDY    76  56  49 W13       29.96R
ST PAUL        CLOUDY    76  56  49 W15       29.95S
CRYSTAL        CLOUDY    75  56  51 W14       29.95R
BLAINE         CLOUDY    75  57  53 W10       29.96R
LAKEVILLE      CLOUDY    72  59  64 W9G16     29.97S
EDEN PRAIRIE   CLOUDY    75  58  55 W12       29.96S
LAKEVILLE      CLOUDY    72  59  64 W9G16     29.97S
SOUTH ST PAUL  PTSUNNY   77  54  44 W12G17    29.95S
LAKE ELMO      FAIR      75  59  57 W7        29.96S
$$
MNZ001>005-007-008-013>017-022>024-027-028-250000-
   Northwest Minnesota

CITY           SKY/WX    TMP DP  RH WIND       PRES   REMARKS
BEMIDJI        CLOUDY    70  53  55 W15G22    29.92S
HALLOCK        CLOUDY    72  52  49 W16       29.85S
ROSEAU         MOSUNNY   73  55  53 W13       29.85S
WARROAD        SUNNY     72  55  56 SW16      29.85S
THIEF RVR FALL CLOUDY    71  52  50 W12G20    29.90S
CROOKSTON      CLOUDY    73  52  46 W20       29.90S
FOSSTON        CLOUDY    70  52  52 W12       29.93S
DETROIT LAKES  MOSUNNY   70  54  56 W12       29.97R
MOORHEAD       MOSUNNY   75  52  43 W16G23    29.95S
PARK RAPIDS    MOSUNNY   71  53  52 W10       29.94S
MAHNOMEN       CLOUDY    71  53  52 W15       29.93F
$$
MNZ006-009>011-018-025>026-250000-
   North Central Minnesota

CITY           SKY/WX    TMP DP  RH WIND       PRES   REMARKS
BAUDETTE       CLOUDY    72  53  51 W8        29.85S
FLAG ISLAND    MOSUNNY   72  54  53 W6        29.81S HAZE
INTL FALLS     MOSUNNY   72  53  51 W10G18    29.83S
WASKISH        MOSUNNY   72  55  56 W15G24    29.88R
BIG FORK       CLOUDY    73  55  53 W7        29.89R
LONGVILLE      PTSUNNY   72  55  56 W8        29.93R
GRAND RAPIDS   CLOUDY    73  56  54 W9G17     29.93R
CRANE LAKE     CLOUDY    75  54  46 W5        29.85R
ORR            CLOUDY    73  50  43 W8G16     29.84R
COOK           MOSUNNY   73  55  53 W12G17    29.87R
WALKER         FAIR      70  54  56 W12G22    29.93R
$$
MNZ012-019>021-037-250000-
   Northeast Minnesota

CITY           SKY/WX    TMP DP  RH WIND       PRES   REMARKS
DULUTH         MOSUNNY   77  55  46 W18       29.88R
ELY            MOSUNNY   75  52  43 W10       29.84S
HIBBING        CLOUDY    72  54  53 W8        29.88R
EVELETH        MOSUNNY   74  48  40 W10G17    29.88R
DULUTH HARBOR  SUNNY     81  55  41 W22G28    29.85R
TWO HARBORS    PTSUNNY   79  59  50 W6        29.83R
SILVER BAY     CLOUDY    75  55  50 CALM      29.82R
GRAND MARAIS     N/A     71  68  90 W8        29.77S
G MARAIS ARPRT MOSUNNY   73  57  56 W3        29.84S
$$
MNZ029>031-032-039>041-046>048-054>057-064-250000-
   West Central Minnesota

CITY           SKY/WX    TMP DP  RH WIND       PRES   REMARKS
FERGUS FALLS   MOSUNNY   73  55  53 W12G17    29.98S
WHEATON        CLOUDY    75  57  53 W8        30.00R
MORRIS         MOSUNNY   75  55  50 W10G18    29.99R
ALEXANDRIA     MOSUNNY   73  55  53 NW14      30.00R
ELBOW LAKE     FAIR      72  56  57 NW10      29.99R
WADENA         MOSUNNY   72  55  56 W9G20     29.96R
GLENWOOD       MOSUNNY   72  54  53 W18G25    29.99S
APPLETON       PTSUNNY   73  54  49 W10       29.99S
BENSON         MOSUNNY   75  54  46 NW14G20   29.98F
ORTONVILLE     MOSUNNY   73  54  49 W12G17    30.00S
MADISON        CLOUDY    73  57  56 NW12      30.00F
WILLMAR        FAIR      73  57  56 W13       30.00S
$$
MNZ033>034-036-042>043-049>051-058-059-250000-
   Central Minnesota

CITY           SKY/WX    TMP DP  RH WIND       PRES   REMARKS
ST CLOUD       CLOUDY    73  57  57 W15       29.95S
SAUK CENTRE    FAIR      71  56  59 W12G17    29.98S
PAYNESVILLE    CLOUDY    71  55  57 W12G18    29.99R
AITKIN         MOSUNNY   75  52  43 W9G18     29.92R
PINE RIVER     CLOUDY    73  55  53 W12       29.96S
BRAINERD       MOSUNNY   73  53  49 W12       29.94R
STAPLES        MOSUNNY   72  52  49 W16       29.96R
LONG PRAIRIE   FAIR      70  54  56 W13G21    29.98R
LITTLE FALLS   CLOUDY    72  52  49 W14G21    29.96R
LITCHFIELD     CLOUDY    73  61  64 SW3       29.99S
BUFFALO        CLOUDY    73  58  59 SW6       29.99R
MAPLE LAKE     CLOUDY    73  57  57 W5        29.99R
HUTCHINSON     SUNNY     73  63  71 W6        30.01R
$$
MNZ037-044-045-052-053-250000-
   East Central Minnesota

CITY           SKY/WX    TMP DP  RH WIND       PRES   REMARKS
PRINCETON      CLOUDY    73  57  56 SW8       29.95S
MORA           MOSUNNY   70  54  56 W8        29.94F
CAMBRIDGE      CLOUDY    75  57  53 W8        29.93S
RUSH CITY      PTSUNNY   73  58  60 W7        29.93F
MOOSE LAKE     CLOUDY    75  54  46 W7        29.89R
HINCKLEY       FAIR      73  59  60 W6        29.91F
CLOQUET        MOSUNNY   75  52  43 W14G21    29.90R
MCGREGOR       PTSUNNY   73  55  53 W10G20    29.92R
$$
MNZ071>073-080-081-089-090-097-098-250000-
   Southwest Minnesota

CITY           SKY/WX    TMP DP  RH WIND       PRES   REMARKS
MONTEVIDEO     CLOUDY    73  57  56 N13       30.01F
GRANITE FALLS  CLOUDY    74  62  67 W5        30.02S
CANBY          CLOUDY    72  58  60 NW8       30.02S
MARSHALL       CLOUDY    72  59  63 W8        30.02R
REDWOOD FALLS  CLOUDY    73  59  61 NW5       30.00S
OLIVIA         PTSUNNY   73  59  60 W6        30.00S
PIPESTONE      CLOUDY    70  57  64 W5        30.06S
WINDOM         PTSUNNY   72  59  64 W7        30.04S
WORTHINGTON    CLOUDY    70  60  70 W8        30.05F
JACKSON        CLOUDY    72  57  60 W6        30.04R
TRACY          CLOUDY    72  62  71 W3        30.04R
SLAYTON        CLOUDY    70  59  68 W5        30.06S
$$
MNZ065>067-074>077-082>085-091>093-250000-
   South Central Minnesota

CITY           SKY/WX    TMP DP  RH WIND       PRES   REMARKS
MANKATO        CLOUDY    73  57  56 NW9       30.00S
NEW ULM        CLOUDY    73  63  68 W6        30.00S
ST JAMES       CLOUDY    68  57  68 CALM      30.02S
FAIRMONT       CLOUDY    73  61  65 NW6       30.03R
GLENCOE        CLOUDY    74  63  68 W5        29.99R
FARIBAULT      CLOUDY    73  63  68 W9        29.99S
OWATONNA       CLOUDY    75  61  60 W8        30.00R
WASECA         MOSUNNY   72  61  68 W8        30.01S
ALBERT LEA     CLOUDY    75  63  64 W3        30.00S
$$
MNZ078>079-086>088-094>096-250000-
   Southeast Minnesota

CITY           SKY/WX    TMP DP  RH WIND       PRES   REMARKS
ROCHESTER      PTSUNNY   75  64  68 NW7       29.99R
RED WING       MOSUNNY   77  57  50 NW6       29.93S
STANTON        CLOUDY    75  59  57 W9        29.96S
DODGE CENTER   CLOUDY    75  61  60 NW13      30.00R
WINONA         CLOUDY    77  64  65 NW7       29.94S
AUSTIN         MOSUNNY   75  63  64 NW6       29.99S
PRESTON        CLOUDY    74  63  68 NW6       29.99S
$$
ABBREVIATIONS USED IN REMARKS
   TC - TEMPERATURES IN CELSIUS
  WCI - WIND CHILL INDEX
   HX - HEAT INDEX
  VSB - VISIBILITY
$$




USA.gov is the U.S. government's official web portal to all federal, state and local government web resources and services.